星链-31197 (STARLINK-31197 )

导读

STARLINK-31197是美国SpaceX公司星链(Starlink)星座项目中的一颗卫星,于2024年1月29日发射入轨。星链计划旨在构建全球覆盖的低轨卫星互联网,为偏远地区提供高速低延迟宽带服务。STARLINK-31197加入了近地轨道上已超九千颗卫星的星链网络,持续推动全球互联覆盖能力的扩展,同时该项目也因天文观测影响、太空交通等问题引发广泛关注。

Basic Information
目录编号:
58859
目录名称:
STARLINK-31197
国际标识:
2024-019G
轨道中心:
EARTH
卫星名称:
星链-31197
卫星全名:
星链-31197 (STARLINK-31197 )
卫星状态:
在轨 (已飞行956 天)
发射日期:
2024-01-29 UTC
国别 :
美国 (US)
星等 :
--
This satellite is enrolled in the Space Conjunction Data Service (SCDS) and the current flight risk assessment level is: High Risk
Orbit Information
数据来源 国际轨道数据 AOE轨道数据
星历时间 2026-09-11T11:44:03+0800
13小时前
查看轨道信息
2026-09-10T08:00:00+0800
1天前
查看轨道信息
半长轴 6861.188km 6861.146km
偏心率 0.0001501 0.0001175
轨道倾角 43.000° 43.002°
近地点辐角 274.874° 276.678°
升交点赤经 281.799° 288.329°
平近点角 85.194° 201.011°
近地点 482.021km 482.202km
远地点 484.081km 483.816km
周期 94.267分钟 94.266分钟
每日圈数 15.275795 15.275935
Detailed Information
固有亮度:
5
最大亮度:
0.3
卫星平台:
Starlink v2.0 mini
覆盖范围:
全球
运营商:
太空探索技术公司
运营商所在国:
美国
制造商(研发单位):
太空探索技术公司
制造商所在国:
美国
使用方式:
暂无
Satellite Introduction
星链(Starlink)计划是由太空探索技术公司(SpaceX)提出的一个巨型低轨卫星互联网星座项目,计划在2019年至2024年间在太空搭建由约1.2万颗卫星组成的“星链”网络,其中1584颗将部署在地球上空550千米处的近地轨道,并从2020年开始工作。该卫星仍在工作。
2D Orbit Map
3D Orbit Map
Orbit Altitude Analysis Chart
Orbit Inclination Analysis Chart
Orbit Comprehensive Analysis Chart
View Comprehensive Chart
Conjunction Data List
Event ID Objects TCA Miss Dist (km) Collision Risk Probability Collision Risk Index (CRI) Action
CDM_260913-001405-885906-657321
2026-09-13T
00:14:25+0000
0.856 km
远距离
2.9485E-5 中风险 0.64
CDM_260912-105405-885906-657321
2026-09-12T
10:54:07+0000
0.861 km
远距离
2.884172E-5 中风险 0.64
CDM_260913-232805-885906-396921
2026-09-13T
23:28:48+0000
0.965 km
远距离
1.668665E-5 中风险 0.59
CDM_260914-010205-885906-396921
2026-09-14T
01:02:58+0000
1.210 km
极远距离
7.626364E-6 低风险 0.53
CDM_260912-091905-885906-657321
2026-09-12T
09:19:58+0000
1.287 km
极远距离
7.26218E-6 低风险 0.52
CDM_260913-014805-885906-657321
2026-09-13T
01:48:35+0000
2.479 km
极远距离
1.228642E-6 低风险 0.37
CDM_260912-224005-885906-657321
2026-09-12T
22:40:16+0000
2.788 km
极远距离
1.0255E-6 低风险 0.35
CDM_260912-122805-885906-657321
2026-09-12T
12:28:17+0000
2.983 km
极远距离
9.427553E-7 极低风险 0.34
Miss Distance Evolution Trend with All Objects
Collision Probability Evolution Trend with All Objects